Dubuque, IA

2:00 AM CST on December 10, 2019 (GMT -0600)
Dubuque Regional

Weather History for KDBQ - November, 2019

Change the Weather History Date:

Sunday, November 17, 2019

  Actual Average Record
Temperature  
Mean Temperature 34 °F 36 °F  
Max Temperature 36 °F 44 °F 71 °F (1941)
Min Temperature 32 °F 28 °F -2 °F (1959)
Degree Days  
Heating Degree Days 31 29  
Month to date heating degree days 643 421  
Since 1 July heating degree days 1276 1070  
Cooling Degree Days 0 0  
Month to date cooling degree days 0 0  
Year to date cooling degree days 679 643  
Moisture  
Dew Point 31 °F    
Average Humidity 87    
Maximum Humidity 96    
Minimum Humidity 75    
Precipitation  
Precipitation 0.03 in 0.08 in 2.04 in (1952)
Month to date precipitation 0.59 1.36  
Year to date precipitation 51.92 33.46  
Snow  
Snow T in 0.10 in - ()
Month to date snowfall 4.9 0.7  
Since 1 July snowfall 14.1 0.7  
Since 1 September snowfall 14.1 0.7  
Snow Depth T in    
Sea Level Pressure  
Sea Level Pressure 29.91 in    
Wind  
Wind Speed 7 mph ()    
Max Wind Speed 17 mph    
Max Gust Speed 26 mph    
Visibility 4.2 miles    
Events Snow    
T = Trace of Precipitation, MM = Missing Value Source: Averaged Metar Reports

Daily Weather History Graph

Daily Weather History Graph

Search for Another Location

Airport or City:

Astronomy

Nov. 17, 2019 Rise Set
Actual Time 6:55 AM CST 4:39 PM CST
Civil Twilight 6:25 AM CST 5:09 PM CST
Nautical Twilight 5:51 AM CST 5:43 PM CST
Astronomical Twilight 5:18 AM CST 6:16 PM CST
Moon 9:14 PM CST (11/17) 11:43 AM CST (11/17)
Length of Visible Light 10h 43m
Length of Day
9h 43m
Waning Gibbous, 73% of the Moon is Illuminated
Nov 17
Waning Gibbous
Nov 19
Last Quarter
Nov 26
New
Dec 4
First Quarter
Dec 11
Full

Hourly Weather History & Observations

Time (CST) Temp. Windchill Dew Point Humidity Pressure Visibility Wind Dir Wind Speed Gust Speed Precip Events Conditions
12:53 AM 33.1 °F 24.9 °F 28.0 °F 82% 30.14 in 5.0 mi South 10.4 mph - N/A   Haze
1:53 AM 33.1 °F 25.5 °F 28.0 °F 82% 30.12 in 5.0 mi South 9.2 mph - N/A   Haze
2:53 AM 33.1 °F 24.9 °F 28.0 °F 82% 30.08 in 6.0 mi South 10.4 mph - N/A   Haze
4:53 AM 33.1 °F 23.4 °F 28.0 °F 82% 30.03 in 6.0 mi South 13.8 mph - N/A   Haze
5:53 AM 33.1 °F 23.9 °F 28.0 °F 82% 30.00 in 6.0 mi South 12.7 mph - N/A   Haze
6:53 AM 33.1 °F 24.4 °F 27.0 °F 78% 29.99 in 6.0 mi South 11.5 mph - N/A   Haze
7:53 AM 33.1 °F 24.4 °F 28.0 °F 82% 29.98 in 4.0 mi South 11.5 mph - N/A   Haze
8:53 AM 33.1 °F 25.5 °F 28.0 °F 82% 29.97 in 4.0 mi South 9.2 mph - N/A   Haze
9:53 AM 33.1 °F 25.5 °F 28.0 °F 82% 29.96 in 4.0 mi South 9.2 mph - N/A   Haze
10:53 AM 34.0 °F 28.0 °F 28.9 °F 82% 29.95 in 4.0 mi South 6.9 mph - N/A   Haze
11:53 AM 34.0 °F 26.6 °F 30.0 °F 85% 29.94 in 4.0 mi SSW 9.2 mph - N/A   Overcast
12:45 PM 34.0 °F 28.8 °F 30.0 °F 85% 29.88 in 1.8 mi South 5.8 mph - 0.01 in Snow Light Snow
12:53 PM 34.0 °F 28.8 °F 30.0 °F 85% 29.91 in 1.5 mi SSW 5.8 mph - 0.01 in Snow Light Snow
1:16 PM 34.0 °F 29.8 °F 30.9 °F 89% 29.86 in 2.0 mi SSW 4.6 mph - 0.01 in Snow Light Snow
1:53 PM 34.0 °F 29.8 °F 30.9 °F 89% 29.89 in 2.0 mi WSW 4.6 mph - 0.01 in   Overcast
2:07 PM 34.0 °F 31.0 °F 30.9 °F 89% 29.85 in 1.8 mi SW 3.5 mph - 0.00 in Snow Light Snow
2:26 PM 34.0 °F 31.0 °F 30.9 °F 89% 29.85 in 1.8 mi SW 3.5 mph - 0.00 in Snow Light Snow
2:36 PM 34.0 °F 31.0 °F 30.9 °F 89% 29.85 in 1.8 mi SW 3.5 mph - 0.00 in Snow Light Snow
2:53 PM 34.0 °F 31.0 °F 32.0 °F 92% 29.88 in 1.8 mi WSW 3.5 mph - 0.00 in Snow Light Snow
3:53 PM 34.0 °F 29.8 °F 32.0 °F 92% 29.88 in 1.2 mi Variable 4.6 mph - 0.01 in Snow Light Snow
4:28 PM 33.8 °F 29.6 °F 32.0 °F 93% 29.85 in 1.5 mi West 4.6 mph - N/A   Overcast
4:53 PM 34.0 °F 31.0 °F 32.0 °F 92% 29.88 in 1.0 mi West 3.5 mph - 0.00 in   Overcast
5:53 PM 35.1 °F 31.0 °F 33.1 °F 92% 29.89 in 1.2 mi WNW 4.6 mph - N/A   Overcast
6:53 PM 35.1 °F 29.3 °F 34.0 °F 96% 29.89 in 1.5 mi NW 6.9 mph - N/A   Overcast
7:45 PM 36.0 °F 30.3 °F 34.0 °F 93% 29.86 in 2.5 mi NW 6.9 mph - N/A   Overcast
7:53 PM 36.0 °F 30.3 °F 34.0 °F 93% 29.89 in 3.0 mi NW 6.9 mph - N/A   Overcast
8:15 PM 36.0 °F 29.0 °F 33.1 °F 89% 29.85 in 5.0 mi NNW 9.2 mph - N/A   Overcast
8:43 PM 36.0 °F 30.3 °F 33.1 °F 89% 29.85 in 6.0 mi NNW 6.9 mph - N/A   Overcast
8:53 PM 36.0 °F 31.1 °F 34.0 °F 93% 29.88 in 6.0 mi NW 5.8 mph - N/A   Overcast
9:16 PM 36.0 °F 29.6 °F 33.1 °F 89% 29.84 in 7.0 mi NW 8.1 mph - N/A   Overcast
9:29 PM 36.0 °F 30.3 °F 33.1 °F 89% 29.84 in 8.0 mi NW 6.9 mph - N/A   Overcast
9:53 PM 36.0 °F 30.3 °F 33.1 °F 89% 29.87 in 8.0 mi NW 6.9 mph - N/A   Overcast
10:03 PM 36.0 °F 30.3 °F 33.1 °F 89% 29.83 in 8.0 mi NNW 6.9 mph - N/A   Overcast
10:53 PM 35.1 °F 29.3 °F 32.0 °F 89% 29.86 in 8.0 mi WNW 6.9 mph - N/A   Overcast
11:53 PM 35.1 °F 28.6 °F 30.9 °F 85% 29.86 in 10.0 mi WNW 8.1 mph - N/A   Overcast